THOR ABLESTAR DEB, 230

Orbit data source: Space-Track

THOR ABLESTAR DEB, 230 is space debris in LEO originally from a launch on Thu, 29 Jun 1961 UTC launched from the Air Force Eastern Test Range (AFETR). Debris objects in space refer to the collection of defunct objects orbiting the Earth. Examples of debris include non-operational satellites, rocket bodies, and fragments generated from explosions, collisions, or faulty payload assembly.

Loading next visibility...
Identifier
230, 1961-015BN
Orbit
LEO
Country
Flag of USUS
Related business
Manufacturer
Unknown
Mission
Spacecraft
Bus & Motor
Unknown
Mass
Unknown
Launch date (UTC)
1961-06-29 (64 years ago)
Launch vehicle
Unknown
Launch site
Air Force Eastern Test Range (AFETR)
Object type
Payload
Rocket body
Debris
Shape & HBR
Unknown
Radar Cross Section
Small (<0.1 m²)

Expand to show TLE details & history
Last TLE update: 10 hours ago

TLE from 10 hours ago
0 THOR ABLESTAR DEB
1 00230U 61015BN  25258.58526869  .00000021  00000-0  68553-4 0  9993
2 00230  66.8861   4.0138 0091933   6.9340 353.2990 13.96714150267402
Epoch: 2025-09-15T14:02Z
TLE epoch observation values (Epoch: 2025-09-15T14:02:47.214Z)
Latitude
Longitude
158.52926°
Altitude
840.785 km
Speed
7.467 km/s
True Right ascension
00h 16m 03s
True Declination
0° 00' 00"
Sunlit
Object was in full shadow at epoch
Visualization orbit readout
Latitude
Unknown
Longitude
Unknown
Altitude
Unknown
Speed
Unknown
Apparent Right ascension
Unknown
Apparent Declination
Unknown
Sunlit
N/A
Visualization observer readout
Local Sidereal Time
16:48:35
Azimuth
Unknown
Elevation
Unknown
Doppler factor
Unknown
Orbital elements
Apogee altitude
970.518 km
Perigee altitude
836.632 km
Semi-major axis
7,281.712 km
Eccentricity
0.00919
Inclination
66.8861°
RAAN
4.0138°
Arg. of periapsis
6.934°
True anomaly
353.17465°
Mean anomaly
353.299°
Eccentric anomaly
353.23697°
Mean motion
3.49295 °/min
Orbital period
103.06 mins
BSTAR
0.000068553
Loading maneuver chart data...
Computing Atmospheric mass density...

Documentation

Showing up to 5 results
|